This demonstration page uses our WeatherBlox Daily Observations layout. Learn more.

Left ArrowRight Arrow

53.62937, 11.41316

Hourly Observations for August 8, 2021

Temp ( °F °C ) Dew Point ( °F °C ) Humidity (%) Winds ( mph kmh ) Pressure ( in mb ) Visibility ( mi km ) Precip ( " mm )
7:50 am 07:50 Mostly Sunny 59 15 57 14 94 94 SSE 7 11 29.62 1003 30 48 N/A
8:20 am 08:20 Mostly Sunny 61 16 57 14 88 88 SSE 8 13 29.62 1003 30 48 N/A
8:50 am 08:50 Mostly Cloudy with Light Showers 61 16 57 14 88 88 S 10 17 29.65 1004 30 48 N/A
9:20 am 09:20 Mostly Cloudy with Light Rain 59 15 59 15 100 100 S 8 13 29.65 1004 30 48 N/A
9:50 am 09:50 Mostly Cloudy with Light Rain 59 15 59 15 100 100 S 10 17 29.65 1004 30 48 N/A
10:20 am 10:20 Mostly Cloudy with Light Rain 61 16 59 15 94 94 S 12 19 29.65 1004 4 6 N/A
10:50 am 10:50 Mostly Cloudy with Rain 61 16 59 15 94 94 S 9 15 29.68 1005 30 48 N/A
11:20 am 11:20 Mostly Cloudy with Light Rain 61 16 59 15 94 94 S 12 19 29.68 1005 30 48 N/A
11:50 am 11:50 Mostly Cloudy 63 17 61 16 94 94 S 12 19 29.68 1005 30 48 N/A
12:20 pm 12:20 Mostly Cloudy 64 18 59 15 83 83 S 16 26 29.71 1006 30 48 N/A
12:50 pm 12:50 Mostly Cloudy 64 18 59 15 83 83 S 16 26 29.71 1006 30 48 N/A
1:20 pm 13:20 Mostly Cloudy 64 18 59 15 83 83 S 20 31 29.71 1006 30 48 N/A
1:50 pm 13:50 Mostly Cloudy 66 19 59 15 78 78 SSW 18 30 29.74 1007 30 48 N/A
2:20 pm 14:20 Mostly Cloudy 66 19 57 14 73 73 SSW 15 24 29.74 1007 30 48 N/A
2:50 pm 14:50 Mostly Cloudy 64 18 59 15 83 83 SSW 12 19 29.74 1007 30 48 N/A
3:20 pm 15:20 Partly Cloudy with Showers Nearby 68 20 57 14 69 69 S 9 15 29.74 1007 30 48 N/A
3:50 pm 15:50 Partly Cloudy 66 19 57 14 73 73 S 12 19 29.77 1008 30 48 N/A
4:20 pm 16:20 Partly Cloudy 70 21 55 13 60 60 SSW 12 19 29.77 1008 30 48 N/A
4:50 pm 16:50 Partly Cloudy 66 19 55 13 68 68 S 15 24 29.80 1009 30 48 N/A
5:20 pm 17:20 Mostly Sunny 66 19 55 13 68 68 S 9 15 29.80 1009 7 11 N/A
5:50 pm 17:50 Mostly Sunny 70 21 55 13 60 60 S 9 15 29.79 1009 7 11 N/A
6:20 pm 18:20 Mostly Sunny 68 20 55 13 64 64 S 12 19 29.79 1009 7 11 N/A
6:50 pm 18:50 Mostly Sunny 68 20 55 13 64 64 S 8 13 29.79 1009 7 11 N/A
7:20 pm 19:20 Mostly Sunny 66 19 55 13 68 68 S 7 11 29.80 1009 7 11 N/A
7:50 pm 19:50 Mostly Sunny 66 19 55 13 68 68 SSE 5 7 29.82 1010 7 11 N/A
8:20 pm 20:20 Mostly Sunny 64 18 55 13 73 73 S 5 7 29.82 1010 7 11 N/A
8:50 pm 20:50 Mostly Sunny 64 18 54 12 68 68 SSE 5 7 29.82 1010 7 11 N/A
9:20 pm 21:20 Mostly Clear 63 17 55 13 77 77 S 5 7 29.85 1011 7 11 N/A
9:50 pm 21:50 Mostly Clear 63 17 54 12 73 73 SSE 6 9 29.85 1011 7 11 N/A

Powered by AerisWeather